Content
SEND FEEDBACK

Daily
Averages
Monthly
Summary
Canada

VANCOUVER, BRITISH COLUMBIA


Home > North America > Canada > British Columbia
Elevation: 7 feet     Latitude: 49 11N     Longitude: 123 10W

WEATHER
 
SELECT A DAY
Number of Records: 249,897;   Date Range: 5/15/97 - 9/21/14
 
SHARE

PRINT THIS DATA

[ ← Previous Day ]
WEATHER ALMANAC - APRIL 17, 2014
[ Next Day → ]
[ °C ]   °F
Weather ElementAverageHighLow
Temperature49.6 °F55.4 °F (1:55 pm)44.6 °F (9:15 pm)
Dewpoint47 °F50 °F (12:15 pm)39.2 °F (11:55 pm)
Humidity90.9 %100 % (3:15 am)76 % (11:55 pm)
Barometer29.77 in29.86 in (12:35 am)29.67 in (5:15 pm)
Wind Speed6.8 mph13.8 mph (2:15 am)
Wind Gust18.4 mph (1:35 am)
Weather ElementAverage
Visibility7.5 mi
Wind DirectionSSE (173.6 °)

Weather ElementTotal
Precipitation0.20 in
Heating Degree Days15 (Base 65)
Averaged from 70 records on April 17, 2014
WEATHER CONDITIONS BREAKOUT
WIND DIRECTION BREAKOUT
WEATHER BY HOUR - APRIL 17, 2014
[ °C ]   °F
Local TimeTemperatureDewpointHumidityBarometerVisibilityWind DirectionWind SpeedGust SpeedPrecipitationEventsConditions
12:35 AM50.0 °F48.2 °F94 %29.86 in8.0 miSouth (180°)6.9 mphRainLight Rain
12:55 AM50.0 °F48.2 °F94 %29.85 in4.0 miSouth (180°)5.8 mph16.1 mphRainLight Rain
1:15 AM50.0 °F48.2 °F94 %29.85 in5.0 miSouth (190°)9.2 mphRainLight Rain
1:35 AM50.0 °F48.2 °F94 %29.84 in6.0 miSouth (190°)10.4 mph18.4 mphRainLight Rain
1:55 AM50.0 °F48.2 °F94 %29.84 in5.0 miSouth (180°)10.4 mphRainLight Rain
2:15 AM50.0 °F48.2 °F94 %29.84 in5.0 miSSW (200°)13.8 mph17.3 mphRainLight Rain
2:35 AM50.0 °F48.2 °F94 %29.84 in2.5 miSSW (200°)11.5 mph18.4 mph0.01 inRainRain
2:55 AM50.0 °F48.2 °F94 %29.83 in7.0 miSouth (180°)8.1 mph0.02 inRainLight Rain
3:15 AM48.2 °F48.2 °F100 %29.83 in9.0 miSouth (190°)11.5 mph17.3 mphRainLight Rain
3:35 AM48.2 °F46.4 °F93 %29.83 in10.0 miSouth (190°)9.2 mphClear
3:55 AM48.2 °F46.4 °F93 %29.83 in9.0 miSouth (180°)8.1 mphRainLight Rain
4:15 AM48.2 °F46.4 °F93 %29.83 in10.0 miSouth (190°)5.8 mphClear
4:35 AM48.2 °F46.4 °F93 %29.83 in10.0 miSouth (170°)4.6 mphClear
4:55 AM48.2 °F46.4 °F93 %29.83 in8.0 miSouth (170°)5.8 mphRainLight Rain
5:15 AM48.2 °F46.4 °F93 %29.82 in10.0 miSouth (180°)5.8 mphClear
5:35 AM48.2 °F46.4 °F93 %29.82 in10.0 miSouth (190°)6.9 mphRainLight Rain
5:55 AM48.2 °F46.4 °F93 %29.82 in10.0 miSouth (190°)4.6 mphClear
6:15 AM48.2 °F46.4 °F93 %29.82 in10.0 miSSW (200°)9.2 mphRainLight Rain
6:35 AM48.2 °F46.4 °F93 %29.82 in5.0 miSouth (190°)9.2 mphRainLight Rain
6:55 AM48.2 °F46.4 °F93 %29.82 in5.0 miSouth (190°)8.1 mphRainLight Rain
7:15 AM48.2 °F46.4 °F93 %29.81 in4.0 miSSW (200°)8.1 mphRainLight Rain
7:35 AM48.2 °F48.2 °F100 %29.81 in4.0 miSSW (200°)8.1 mphRainLight Rain
7:55 AM48.2 °F48.2 °F100 %29.81 in4.0 miSouth (180°)5.8 mphRainLight Rain
8:15 AM48.2 °F48.2 °F100 %29.81 in3.0 miSouth (180°)3.5 mphRainLight Rain
8:35 AM48.2 °F48.2 °F100 %29.80 in4.0 miCalmRainLight Rain
9:15 AM50.0 °F48.2 °F94 %29.80 in5.0 miSSW (210°)3.5 mphRainLight Rain
9:35 AM50.0 °F48.2 °F94 %29.79 in7.0 miSouth (180°)3.5 mphRainLight Rain
9:55 AM50.0 °F48.2 °F94 %29.79 in5.0 miSouth (190°)3.5 mphRainLight Rain
10:15 AM50.0 °F48.2 °F94 %29.78 in9.0 miCalmOvercast
10:35 AM50.0 °F48.2 °F94 %29.78 in9.0 miNorth (10°)3.5 mphOvercast
10:55 AM50.0 °F48.2 °F94 %29.77 in8.0 miSouth (180°)6.9 mphRainLight Rain
11:15 AM50.0 °F48.2 °F94 %29.77 in9.0 miSouth (170°)5.8 mphMostly Cloudy
11:35 AM51.8 °F48.2 °F88 %29.77 in8.0 miSSW (200°)10.4 mph17.3 mphScattered Clouds
11:55 AM50.0 °F48.2 °F94 %29.76 in7.0 miSSW (210°)8.1 mphRainLight Rain
12:15 PM51.8 °F50.0 °F94 %29.76 in5.0 miSSW (200°)8.1 mphRainLight Rain
12:35 PM51.8 °F50.0 °F94 %29.75 in6.0 miSouth (190°)5.8 mphRainLight Rain
12:55 PM53.6 °F50.0 °F88 %29.75 in8.0 miSouth (170°)5.8 mphScattered Clouds
1:15 PM53.6 °F50.0 °F88 %29.74 in10.0 miSSE (160°)4.6 mphMostly Cloudy
1:35 PM53.6 °F50.0 °F88 %29.74 in10.0 miSouth (170°)5.8 mphMostly Cloudy
1:55 PM55.4 °F50.0 °F82 %29.73 in10.0 miSouth (170°)4.6 mphMostly Cloudy
2:15 PM55.4 °F48.2 °F77 %29.73 in10.0 miSouth (170°)8.1 mph16.1 mphScattered Clouds
2:35 PM55.4 °F48.2 °F77 %29.72 in10.0 miSouth (180°)8.1 mphMostly Cloudy
2:55 PM55.4 °F48.2 °F77 %29.71 in10.0 miSouth (170°)8.1 mphMostly Cloudy
3:15 PM53.6 °F48.2 °F82 %29.71 in10.0 miSSE (160°)6.9 mphMostly Cloudy
3:35 PM53.6 °F48.2 °F82 %29.70 in10.0 miSSE (160°)8.1 mphScattered Clouds
3:55 PM53.6 °F46.4 °F77 %29.70 in10.0 miSouth (170°)6.9 mphRainLight Rain
4:20 PM53.6 °F48.2 °F82 %29.69 in10.0 miSouth (190°)6.9 mph16.1 mphMostly Cloudy
4:35 PM53.6 °F48.2 °F82 %29.68 in9.0 miSouth (170°)5.8 mph16.1 mphMostly Cloudy
4:55 PM53.6 °F48.2 °F82 %29.68 in5.0 miSouth (180°)5.8 mphRainLight Rain
5:15 PM53.6 °F48.2 °F82 %29.67 in9.0 miSouth (190°)10.4 mphPartly Cloudy
5:35 PM51.8 °F48.2 °F88 %29.67 in5.0 miSouth (190°)5.8 mphRainLight Rain
5:55 PM51.8 °F48.2 °F88 %29.67 in4.0 miSouth (190°)8.1 mphRainLight Rain
6:15 PM50.0 °F48.2 °F94 %29.67 in4.0 miSouth (170°)4.6 mphRainLight Rain
6:35 PM50.0 °F48.2 °F94 %29.67 in2.5 miSouth (180°)4.6 mphRainRain
6:55 PM50.0 °F48.2 °F94 %29.68 in1.8 miWSW (240°)9.2 mph0.06 inRainHeavy Rain
7:15 PM48.2 °F44.6 °F87 %29.67 in2.5 miSSW (210°)9.2 mph0.02 inRainRain
7:35 PM46.4 °F44.6 °F93 %29.68 in7.0 miSSW (210°)8.1 mph0.03 inRainLight Rain
7:55 PM46.4 °F44.6 °F93 %29.68 in10.0 miSouth (190°)10.4 mph0.03 inPartly Cloudy
8:15 PM46.4 °F44.6 °F93 %29.69 in9.0 miSSW (200°)12.7 mphClear
8:35 PM46.4 °F44.6 °F93 %29.72 in10.0 miSSW (210°)8.1 mphScattered Clouds
8:50 PM46.4 °F42.8 °F87 %29.75 in3.0 miNW (320°)6.9 mph18.4 mph0.03 inRainLight Rain
9:15 PM44.6 °F42.8 °F93 %29.77 in10.0 miCalmOvercast
9:35 PM44.6 °F44.6 °F100 %29.78 in10.0 miCalmOvercast
9:55 PM44.6 °F44.6 °F100 %29.79 in10.0 miSSW (200°)5.8 mphRainLight Rain
10:15 PM44.6 °F44.6 °F100 %29.80 in10.0 miCalmMostly Cloudy
10:35 PM44.6 °F44.6 °F100 %29.81 in10.0 miSouth (180°)4.6 mphOvercast
10:55 PM46.4 °F42.8 °F87 %29.81 in10.0 miSSW (200°)5.8 mphMostly Cloudy
11:15 PM46.4 °F41.0 °F81 %29.82 in10.0 miSSW (210°)6.9 mphMostly Cloudy
11:35 PM46.4 °F41.0 °F81 %29.83 in10.0 miSSW (210°)8.1 mphScattered Clouds
11:55 PM46.4 °F39.2 °F76 %29.84 in10.0 miSSW (200°)9.2 mphMostly Cloudy
Hourly data recorded from CZBB, located miles away from Vancouver, British Columbia







STORIES FROM OUR PARTNERS